C/2006 U5 (Christensen)

T 2006 Aug. 24.72635 TT                                 Nakano

q   2.4868036            (2000.0)            P               Q

                   Peri.   40.51219     +0.54821871     -0.83612978

                   Node    16.27020     +0.74922200     +0.48115140

e   1.0            Incl.    3.79163     +0.37164854     +0.26340146

From 45 observations 2006 Oct. 27-31.

Residuals in seconds of arc 

2006/                     061028 703  1.4-  0.8+    061029 G96  0.5+  0.5-  

061027 703  0.0   0.5+    061028 734  0.3+  0.6-    061029 673  1.1+  0.6-  

061027 703  0.3+  0.7+    061028 G96  0.1-  0.4-    061029 673  1.2+  0.5-  

061027 703  0.1-  1.5+    061028 734  0.3-  0.1-    061029 G96  0.4+  0.5-  

061027 703  0.8+  1.4+    061028 734  0.3+  0.4-    061029 673  0.7+  0.6-  

061028 118  1.0+  0.2-    061029 473  0.5+  0.1-    061029 G96  0.9+  0.4-  

061028 118  0.1+  0.5+    061029 473  0.2-  0.2-    061029 673  1.0+  0.1-  

061028 448  0.1+  0.4-    061029 473  0.8-  0.0     061029 G96  0.6+  0.5-  

061028 448  0.6-  0.3-    061029 703  0.9-  0.3-    061029 703  0.6-  0.7+  

061028 448  0.0   0.5-    061029 703  0.1-  0.2+    061029 703  0.9-  0.2+  

061028 G96  1.1-  0.4-    061029 703  0.8+  0.0     061029 703  1.2-  0.4-  

061028 703  0.4+  0.1+    061029 703  0.8+  0.3+    061031 349  0.0   0.8+  

061028 703  1.2-  0.6+    061029 734  0.6-  0.5-    061031 349  0.1-  0.9+  

061028 G96  0.7+  0.7-    061029 734  0.6-  0.2-    061031 349  0.1-  0.9+  

061028 703  0.6-  0.5+    061029 734  0.3-  0.5-                            

061028 G96  0.3-  0.3-    061029 734  0.2+  0.5-                            



NAKANO

         **** Don't distribute anyone except personal use only ****

                (C) Copyright 2006 OAA/ComputingSection

write mail from CFAD0::NAKANO on 2006-11-04 04:16:29(JST).

 



◎C/2006 U5の軌道と予報位置です



 上尾の門田健一氏から2006年10月31日の観測が報告されました.氏のCCD全光度は

17.7等でした.



    C/2006 U5 (Christensen)

T 2006 Aug. 24.72635 TT                                 Nakano

q   2.4868036            (2000.0)            P               Q

                   Peri.   40.51219     +0.54821871     -0.83612978

                   Node    16.27020     +0.74922200     +0.48115140

e   1.0            Incl.    3.79163     +0.37164854     +0.26340146

From 45 observations 2006 Oct. 27-31.

 

Date/        TT  R.A.(2000) Decl.     Delta   r     Daily motion  Mag.  Moon Age

              h    h  m       。  ,                      ,  / PA 。  m1      。

2006 Nov.  1 18  06 45.58  +27 33.0   1.969  2.597     7.5 /  79  17.6  114  .80

           2 18  06 46.14  +27 34.5   1.962  2.601     7.2 /  78  17.6   99  .89

           3 18  06 46.66  +27 36.0   1.955  2.604     6.8 /  77  17.6   84  .95

           4 18  06 47.16  +27 37.5   1.948  2.607     6.4 /  76  17.6   69  .99

           5 18  06 47.63  +27 39.0   1.941  2.610     6.1 /  75  17.6   54 1.00

           6 18  06 48.07  +27 40.5   1.935  2.614     5.7 /  74  17.6   40  .98

           7 18  06 48.49  +27 42.1   1.928  2.617     5.3 /  73  17.6   26  .93

           8 18  06 48.87  +27 43.6   1.922  2.620     5.0 /  71  17.6   12  .87

           9 18  06 49.23  +27 45.2   1.916  2.624     4.6 /  70  17.6    1  .78

          10 18  06 49.56  +27 46.8   1.910  2.627     4.3 /  68  17.6   14  .69

          11 18  06 49.86  +27 48.5   1.904  2.631     3.9 /  65  17.6   27  .60

          12 18  06 50.12  +27 50.1   1.898  2.634     3.6 /  63  17.6   39  .50

          13 18  06 50.37  +27 51.7   1.892  2.638     3.3 /  59  17.6   51  .40

          14 18  06 50.58  +27 53.4   1.887  2.641     3.0 /  55  17.6   63  .31

          15 18  06 50.76  +27 55.1   1.882  2.645     2.7 /  50  17.6   75  .23

          16 18  06 50.91  +27 56.8   1.877  2.649     2.4 /  44  17.6   86  .16

          17 18  06 51.04  +27 58.5   1.872  2.652     2.1 /  37  17.6   98  .09

          18 18  06 51.14  +28 00.2   1.867  2.656     2.0 /  28  17.6  110  .05

          19 18  06 51.21  +28 01.9   1.862  2.660     1.8 /  18  17.6  123  .01

          20 18  06 51.25  +28 03.7   1.858  2.664     1.7 /   6  17.6  135  .00

          21 18  06 51.26  +28 05.4   1.853  2.668     1.8 / 354  17.6  148  .01

          22 18  06 51.25  +28 07.1   1.849  2.671     1.8 / 343  17.6  160  .04

          23 18  06 51.21  +28 08.9   1.846  2.675     2.0 / 333  17.6  173  .08

          24 18  06 51.14  +28 10.6   1.842  2.679     2.1 / 325  17.6  173  .15

          25 18  06 51.05  +28 12.4   1.838  2.683     2.3 / 318  17.6  160  .24

          26 18  06 50.93  +28 14.1   1.835  2.687     2.6 / 312  17.6  146  .33

          27 18  06 50.78  +28 15.8   1.832  2.691     2.8 / 308  17.6  133  .44

          28 18  06 50.62  +28 17.6   1.829  2.696     3.1 / 304  17.6  119  .55

          29 18  06 50.42  +28 19.3   1.826  2.700     3.3 / 301  17.6  104  .67

          30 18  06 50.21  +28 21.0   1.824  2.704     3.6 / 298  17.6   90  .77

     Dec.  1 18  06 49.97  +28 22.7   1.822  2.708     3.8 / 296  17.6   75  .86

NAKANO

         **** Don't distribute anyone except personal use only ****

                (C) Copyright 2006 OAA/ComputingSection

write mail from CFAD0::NAKANO on 2006-11-02 05:02:46(JST).

 



戻ります。